Jamestown, NY

1:34 PM EST on December 08, 2019 (GMT -0500)
Chautauqua County-Jamestown

Weather History for KJHW - October, 2019

Change the Weather History Date:

Wednesday, October 30, 2019

  Actual Average Record
Temperature  
Mean Temperature 52 °F -  
Max Temperature 57 °F 55 °F 78 °F (1989)
Min Temperature 46 °F 30 °F 13 °F (1985)
Degree Days  
Heating Degree Days 14    
Growing Degree Days 2 (Base 50)    
Moisture  
Dew Point 49 °F    
Average Humidity 92    
Maximum Humidity 100    
Minimum Humidity 82    
Precipitation  
Precipitation 0.11 in - - ()
Sea Level Pressure  
Sea Level Pressure 30.17 in    
Wind  
Wind Speed 4 mph (SE)    
Max Wind Speed 10 mph    
Max Gust Speed -    
Visibility 9 miles    
Events Rain    
Averages and records for this station are not official NWS values.
T = Trace of Precipitation, MM = Missing Value Source: NWS Daily Summary

Daily Weather History Graph

Daily Weather History Graph

Search for Another Location

Airport or City:

Astronomy

Oct. 30, 2019 Rise Set
Actual Time 7:47 AM EDT 6:13 PM EDT
Civil Twilight 7:18 AM EDT 6:42 PM EDT
Nautical Twilight 6:45 AM EDT 7:15 PM EDT
Astronomical Twilight 6:12 AM EDT 7:47 PM EDT
Moon 10:30 AM EDT (10/30) 8:17 PM EDT (10/30)
Length of Visible Light 11h 24m
Length of Day
10h 26m
Waxing Crescent, 8% of the Moon is Illuminated
Oct 30
Waxing Crescent
Nov 4
First Quarter
Nov 12
Full
Nov 19
Last Quarter
Nov 26
New

Hourly Weather History & Observations

Time (EDT) Temp. Windchill Dew Point Humidity Pressure Visibility Wind Dir Wind Speed Gust Speed Precip Events Conditions
12:45 AM 48.2 °F - 46.4 °F 93% 30.23 in 10.0 mi South 5.8 mph - N/A   Scattered Clouds
12:56 AM 48.9 °F - 46.9 °F 93% 30.24 in 10.0 mi South 4.6 mph - N/A   Clear
1:56 AM 48.9 °F - 46.9 °F 93% 30.23 in 10.0 mi Calm Calm - N/A   Clear
2:56 AM 48.9 °F - 46.0 °F 90% 30.25 in 10.0 mi SW 3.5 mph - N/A   Clear
3:56 AM 48.9 °F - 46.9 °F 93% 30.25 in 10.0 mi WSW 3.5 mph - N/A   Partly Cloudy
4:07 AM 48.2 °F - 44.6 °F 87% 30.22 in 10.0 mi Calm Calm - N/A   Mostly Cloudy
4:56 AM 50.0 °F - 46.9 °F 89% 30.25 in 10.0 mi WSW 3.5 mph - N/A   Mostly Cloudy
5:08 AM 48.2 °F - 46.4 °F 93% 30.23 in 10.0 mi Calm Calm - N/A   Scattered Clouds
5:56 AM 48.0 °F - 46.9 °F 96% 30.27 in 10.0 mi Calm Calm - N/A   Partly Cloudy
6:56 AM 48.9 °F - 46.9 °F 93% 30.27 in 10.0 mi NNW 4.6 mph - N/A   Overcast
7:11 AM 48.2 °F - 46.4 °F 93% 30.25 in 10.0 mi Calm Calm - N/A   Overcast
7:56 AM 48.9 °F - 48.0 °F 97% 30.27 in 8.0 mi North 5.8 mph - N/A   Overcast
8:05 AM 48.2 °F - 48.2 °F 100% 30.24 in 7.0 mi East 3.5 mph - N/A   Overcast
8:14 AM 48.2 °F - 46.4 °F 93% 30.24 in 7.0 mi ENE 4.6 mph - N/A   Overcast
8:30 AM 46.4 °F 45.2 °F 46.4 °F 100% 30.25 in 2.5 mi East 3.5 mph - N/A   Overcast
8:37 AM 46.4 °F 45.2 °F 46.4 °F 100% 30.25 in 5.0 mi East 3.5 mph - N/A   Overcast
8:53 AM 48.2 °F - 48.2 °F 100% 30.25 in 7.0 mi Calm Calm - N/A   Overcast
8:56 AM 48.9 °F - 48.0 °F 97% 30.29 in 7.0 mi Calm Calm - N/A   Overcast
9:06 AM 48.2 °F - 48.2 °F 100% 30.26 in 8.0 mi Calm Calm - N/A   Overcast
9:22 AM 50.0 °F - 48.2 °F 94% 30.27 in 10.0 mi Calm Calm - N/A   Overcast
9:32 AM 50.0 °F - 48.2 °F 94% 30.26 in 10.0 mi NNE 4.6 mph - N/A   Overcast
9:56 AM 51.1 °F - 48.0 °F 89% 30.27 in 10.0 mi ENE 6.9 mph - N/A   Overcast
10:05 AM 50.0 °F - 48.2 °F 94% 30.24 in 10.0 mi NE 6.9 mph - N/A   Overcast
10:38 AM 51.8 °F - 48.2 °F 88% 30.23 in 10.0 mi ENE 5.8 mph - N/A   Overcast
10:48 AM 51.8 °F - 48.2 °F 88% 30.24 in 10.0 mi NE 5.8 mph - N/A   Overcast
10:56 AM 51.1 °F - 48.9 °F 92% 30.27 in 10.0 mi NE 3.5 mph - N/A   Overcast
11:56 AM 53.1 °F - 48.9 °F 86% 30.24 in 10.0 mi ENE 6.9 mph - N/A   Overcast
12:34 PM 53.6 °F - 48.2 °F 82% 30.20 in 10.0 mi ESE 8.1 mph - N/A   Overcast
12:56 PM 55.0 °F - 50.0 °F 83% 30.21 in 10.0 mi East 9.2 mph - N/A   Overcast
1:56 PM 55.9 °F - 51.1 °F 84% 30.17 in 10.0 mi ESE 6.9 mph - N/A   Overcast
3:56 PM 57.0 °F - 53.1 °F 87% 30.12 in 10.0 mi SSE 6.9 mph - N/A   Overcast
4:48 PM 57.2 °F - 51.8 °F 82% 30.07 in 10.0 mi SSE 8.1 mph - N/A   Overcast
4:56 PM 57.0 °F - 52.0 °F 83% 30.09 in 10.0 mi SSE 6.9 mph - N/A   Overcast
5:56 PM 57.0 °F - 52.0 °F 83% 30.09 in 10.0 mi SSE 5.8 mph - N/A   Mostly Cloudy
6:35 PM 55.4 °F - 51.8 °F 88% 30.03 in 10.0 mi SE 9.2 mph - 0.00 in Rain Light Rain
6:56 PM 55.9 °F - 52.0 °F 87% 30.05 in 10.0 mi SSE 5.8 mph - 0.00 in Rain Light Rain
7:47 PM 55.4 °F - 51.8 °F 88% 30.01 in 10.0 mi South 4.6 mph - 0.00 in Rain Light Rain
7:56 PM 55.0 °F - 52.0 °F 89% 30.02 in 10.0 mi SSE 8.1 mph - 0.00 in Rain Light Rain
8:35 PM 55.4 °F - 53.6 °F 94% 29.98 in 10.0 mi South 9.2 mph - 0.01 in Rain Light Rain
8:45 PM 55.4 °F - 53.6 °F 94% 29.98 in 10.0 mi South 10.4 mph - 0.01 in Rain Light Rain
9:56 PM 55.0 °F - 54.0 °F 96% 29.98 in 10.0 mi South 9.2 mph - 0.02 in Rain Light Rain
10:56 PM 55.0 °F - 54.0 °F 96% 29.96 in 9.0 mi South 9.2 mph - 0.03 in Rain Light Rain
11:12 PM 55.4 °F - 53.6 °F 94% 29.92 in 9.0 mi South 9.2 mph - 0.02 in Rain Light Rain
11:56 PM 55.0 °F - 54.0 °F 96% 29.93 in 7.0 mi South 8.1 mph - 0.06 in Rain Light Rain